TITAN 3C TRANSTAGE DEB, 20760

Orbit data source: Space-Track

TITAN 3C TRANSTAGE DEB, 20760 is space debris in HEO originally from a launch on Tue, 21 Dec 1965 UTC launched from the Air Force Eastern Test Range (AFETR). Debris objects in space refer to the collection of defunct objects orbiting the Earth. Examples of debris include non-operational satellites, rocket bodies, and fragments generated from explosions, collisions, or faulty payload assembly.

Loading next visibility...
Identifier
20760, 1965-108AE
Orbit
HEO
Last TLE update
11 hours ago
Origin
Manufacturer
Unknown
Mission
Spacecraft
Bus & Motor
Unknown
Mass
Unknown
Launch date (UTC)
1965-12-21 (60 years ago)
Launch vehicle
Unknown
Launch site
Air Force Eastern Test Range (AFETR)
Object type
Payload
Rocket body
Debris
Shape & HBR
Unknown
Radar Cross Section
Medium (>0.1 m² and <1 m²)

Expand to show TLE details & history

TLE from 11 hours ago
0 TITAN 3C TRANSTAGE DEB
1 20760U 65108AE  25181.89430661  .00000800  00000-0  85552-2 0  9994
2 20760  27.0473 119.4495 6682776  43.0470 357.4748  2.84084691141357
Epoch: 2025-06-30T21:27Z
TLE epoch observation values (Epoch: 2025-06-30T21:27:48.091Z)
Latitude
11.98684°
Longitude
-97.29667°
Altitude
719.476 km
Speed
9.664 km/s
True Right ascension
09h 35m 24s
True Declination
11° 55' 00"
Sunlit
Object was in daylight at epoch
Visualization orbit readout
Latitude
-10.51501°
Longitude
79.36813°
Altitude
25,034.013 km
Speed
2.54 km/s
Apparent Right ascension
21h 34m 44s
Apparent Declination
-20° 27' 59"
Sunlit
Object is in daylight
Visualization observer readout
Local Sidereal Time
20:13:08
Azimuth
158.562° S
Elevation
26.689°
Doppler factor
1
Orbital elements
Apogee altitude
28,759.899 km
Perigee altitude
608.754 km
Semi-major axis
21,062.463 km
Eccentricity
0.66828
Inclination
27.0473°
RAAN
119.4495°
Arg. of periapsis
43.047°
True anomaly
Unknown
Mean anomaly
357.4748°
Eccentric anomaly
Unknown
Mean motion
0.71003 °/min
Orbital period
507.02 mins
BSTAR
0.0085552
Loading maneuver chart data...
Loading SW <> Apogee altitude chart data...

TITAN 3C TRANSTAGE DEB Visibility forecast

Observer location: undefined°, undefined°

Span
Click to sort rows by Start time (UTC) header in descending order
Start Az.
Max El. time (UTC)
Max El. Az.
Max El.
End time (UTC)
End Az.
234 mins2025-07-01 08:35:00.078Z158.571° S2025-07-01 08:35:00.078Z158.571° S24.174°2025-07-01 12:29:00.078Z170.505° S
53 mins2025-07-02 07:42:00.078Z256.507° W2025-07-02 08:15:00.078Z202.937° SW31.796°2025-07-02 08:35:00.078Z191.759° SSW
|